Retour au catalogue

FENGYUN 1C DEB

ActifSSO
NORAD 31609·DEBRIS·🇨🇳 China

Lancé May 10, 1999 depuis Taiyuan Satellite Launch Center

Loading…

Prochains Passages (prochaines 24 heures)

TLE

FraisSource: Space-Track

Époque: Sep 13, 2026, 01:34 UTC

1 31609U 99025BZP 26256.06571296  .00002433  00000-0  11720-2 0  9996
2 31609  99.1986 299.0270 0090978 262.9815 126.1297 14.17583398699694

Suivez FENGYUN 1C DEB en temps réel avec AllMySat

Download on the App Store